[[{"header":{"parameterUnit":"m.s-1","parameterCategory":1,"la1":30.2991,"la2":30.254,"lo1":-89.0895,"lo2":-89.0444,"dy":0.0017,"dx":0.0017,"nx":28,"ny":28,"refTime":"2025-04-17T09:00:00:Z","depth":0,"parameterNumber":2,"parameterNumberName":"U-component_of_WINDS"},"data":[0,0,0,0,0,0,0,0,0,0,0,0,0,0,0,0,0,0,0,0,0,0,0,0,0,0,0,0,0,0,0,0,0,0,0,0,0,0,0,0,0,0,0,0,0,0,0,0,0,0,0,0,0,0,0,0,0,0,-3.168,-3.168,0,-3.171,-3.171,-3.1711,-3.1692,-3.1691,-3.169,-3.1689,-3.1719,-3.1721,-3.1723,0,0,0,0,0,0,0,0,0,0,0,0,0,-3.1607,-3.1608,-3.168,-3.168,-3.168,-3.171,-3.171,-3.1711,-3.1692,-3.1691,-3.169,-3.1689,-3.1719,-3.1721,-3.1723,0,0,0,0,0,0,0,0,0,0,0,0,0,-3.1638,-3.1608,-3.168,-3.1675,-3.1674,-3.171,-3.171,-3.1711,-3.1692,-3.1691,-3.1689,-3.1688,-3.1718,-3.1721,-3.1723,-3.1765,0,0,-3.173,-3.1732,0,0,0,0,0,0,0,0,-3.1636,-3.164,-3.1675,-3.1675,-3.1675,-3.1696,-3.1696,-3.1729,-3.1692,-3.1685,-3.1689,-3.1687,-3.1712,-3.1715,-3.1724,-3.1766,-3.1768,-3.1731,-3.1732,-3.1733,-3.1734,0,0,0,0,0,0,0,-3.1634,-3.1639,-3.1692,-3.1675,-3.1675,-3.1671,-3.1674,-3.1702,-3.1706,-3.1686,-3.1684,-3.1688,-3.1712,-3.1722,-3.1724,-3.1768,-3.1731,-3.1733,-3.1734,-3.1735,-3.1848,-3.1849,0,0,0,0,0,0,-3.1632,-3.1637,-3.1691,-3.1693,-3.1652,-3.1674,-3.1677,-3.169,-3.1706,-3.1707,-3.1689,-3.1687,-3.1718,-3.1722,-3.1725,-3.1776,-3.1733,-3.1736,-3.1737,-3.1846,-3.1848,-3.185,0,0,0,0,0,0,-3.1631,-3.1637,-3.1689,-3.1665,-3.1671,-3.1676,-3.1692,-3.1692,-3.1701,-3.1708,-3.1709,-3.1698,-3.1717,-3.1722,-3.1756,-3.1776,-3.1737,-3.1739,-3.1844,-3.1847,-3.1849,-3.1876,0,0,0,0,0,0,-3.1629,-3.1637,-3.1652,-3.1665,-3.1672,-3.1719,-3.1693,-3.1693,-3.1705,-3.1703,-3.1717,-3.1718,-3.1716,-3.1752,-3.1758,-3.1779,-3.1741,-3.1842,-3.1845,-3.1848,-3.1873,-3.1879,-3.1884,0,0,0,0,0,-3.1626,-3.1658,-3.1653,-3.1659,-3.1692,-3.172,-3.1724,-3.1722,-3.1707,-3.1723,-3.1728,-3.1717,-3.1774,-3.1756,-3.1762,-3.1784,-3.1841,-3.1845,-3.1848,-3.1871,-3.1878,-3.1884,0,0,0,0,0,0,-3.1646,-3.166,-3.1654,-3.1691,-3.1705,-3.1716,-3.1736,-3.1729,-3.1747,-3.1744,-3.1741,-3.1744,-3.1779,-3.1785,-3.1765,-3.1826,-3.1805,-3.181,-3.182,-3.1827,-3.1832,-3.1829,-3.1743,0,0,0,0,0,-3.1656,-3.1677,-3.1688,-3.172,-3.1727,-3.1731,-3.1743,-3.174,-3.1754,-3.1759,-3.1767,-3.178,-3.1801,-3.1815,-3.1834,-3.1875,-3.1878,-3.1894,-3.1899,-3.1904,-3.1907,-3.193,-3.1937,-3.1861,-3.1861,-3.1861,0,0,-3.1674,-3.1684,-3.1697,-3.1724,-3.1734,-3.1757,-3.1735,-3.176,-3.1776,-3.1763,-3.1795,-3.1801,-3.1816,-3.1854,-3.1871,-3.186,-3.1929,-3.1908,-3.1911,-3.1912,-3.1934,-3.1941,-3.1947,-3.1863,-3.1863,-3.1862,0,0,-3.1719,-3.1729,-3.1756,-3.1768,-3.1784,-3.1786,-3.1793,-3.1807,-3.1811,-3.1843,-3.1834,-3.1854,-3.189,-3.1901,-3.1912,-3.1964,-3.1955,-3.1971,-3.1998,-3.202,-3.2026,-3.2031,-3.2049,-3.2056,-3.1975,-3.1975,-3.1975,0,-3.1739,-3.1773,-3.1772,-3.1797,-3.1809,-3.18,-3.1828,-3.1839,-3.186,-3.1869,-3.1858,-3.1903,-3.1913,-3.1953,-3.1966,-3.1975,-3.1983,-3.1968,-3.2025,-3.203,-3.2035,-3.2052,-3.2059,-3.1977,-3.1977,-3.1976,-3.1976,0,-3.1797,-3.1821,-3.1842,-3.1863,-3.1878,-3.1905,-3.1908,-3.1924,-3.1921,-3.1925,-3.1959,-3.1971,-3.1993,-3.2003,-3.2,-3.2043,-3.2036,-3.2025,-3.2003,-3.2044,-3.206,-3.2067,-3.1979,-3.1979,-3.1978,-3.1978,0,0,-3.1853,-3.1875,-3.1883,-3.1893,-3.1911,-3.1929,-3.1957,-3.1979,-3.1992,-3.2008,-3.2031,-3.2063,-3.2053,-3.2065,-3.2064,-3.2084,-3.2125,-3.207,-3.2071,-3.2079,-3.2173,-3.218,-3.2187,-3.212,-3.2121,-3.2122,-3.2171,0,-3.1898,-3.1945,-3.1946,-3.1989,-3.2011,-3.2004,-3.2028,-3.2042,-3.2048,-3.2067,-3.2074,-3.2096,-3.2082,-3.2089,-3.2109,-3.2115,-3.2143,-3.2112,-3.214,-3.2141,-3.2135,-3.2196,-3.2203,-3.2249,-3.2178,-3.2179,-3.2179,0,-3.1956,-3.1974,-3.202,-3.2036,-3.2046,-3.2067,-3.2088,-3.2107,-3.2124,-3.2127,-3.2142,-3.2138,-3.2167,-3.2146,-3.2186,-3.2165,-3.2177,-3.2183,-3.2184,-3.2185,-3.2161,-3.2197,-3.2263,-3.2269,-3.2189,-3.2189,-3.2188,0,-3.1991,-3.2027,-3.2059,-3.2069,-3.2089,-3.2104,-3.2113,-3.2128,-3.2142,-3.2161,-3.217,-3.2192,-3.2204,-3.2222,-3.2225,-3.221,-3.2265,-3.2244,-3.2267,-3.2267,-3.2277,-3.2276,-3.2344,-3.2288,-3.2288,-3.2288,-3.2288,0,-3.204,-3.2068,-3.2076,-3.2095,-3.2127,-3.2129,-3.216,-3.2168,-3.2182,-3.2204,-3.22,-3.222,-3.2223,-3.2245,-3.2248,-3.228,-3.2286,-3.2289,-3.2289,-3.2288,-3.2288,-3.2295,-3.2291,-3.229,-3.2289,-3.2289,-3.2289,0,-3.2083,-3.2089,-3.2124,-3.2141,-3.2146,-3.2168,-3.2183,-3.2202,-3.2208,-3.2236,-3.2242,-3.2252,-3.2277,-3.2283,-3.2313,-3.2315,-3.2353,-3.235,-3.2347,-3.2346,-3.2369,-3.2366,-3.2442,-3.2452,-3.2391,-3.2391,-3.2392,0,-3.2113,-3.2134,-3.2154,-3.2168,-3.2178,-3.2201,-3.2215,-3.2219,-3.2235,-3.2256,-3.2273,-3.2298,-3.2318,-3.2359,-3.2368,-3.2392,-3.2389,-3.2415,-3.2392,-3.2391,-3.2388,-3.2386,-3.2388,-3.2418,-3.2418,-3.2419,-3.2419,0,-3.2165,-3.2168,-3.2189,-3.2211,-3.2229,-3.2247,-3.2264,-3.2276,-3.2282,-3.23,-3.2326,-3.2341,-3.2373,-3.2397,-3.2421,-3.2431,-3.2426,-3.2427,-3.2433,-3.2432,-3.2428,-3.243,-3.2357,-3.2424,-3.2424,-3.2424,-3.2423,-3.2423,-3.2202,-3.2221,-3.2238,-3.2262,-3.2276,-3.2292,-3.2311,-3.232,-3.2342,-3.2368,-3.2369,-3.2397,-3.2415,-3.2447,-3.2458,-3.2481,-3.2473,-3.2483,-3.2485,-3.2487,-3.2488,-3.2427,-3.2486,-3.2485,-3.2485,-3.2485,-3.2485,0,-3.2253,-3.2265,-3.2287,-3.2311,-3.233,-3.2326,-3.2345,-3.2361,-3.2386,-3.2403,-3.2423,-3.2454,-3.2478,-3.2491,-3.2516,-3.2531,-3.253,-3.2538,-3.2536,-3.2538,-3.2494,-3.2486,-3.2538,-3.2538,-3.2538,-3.2538,-3.2538,-3.2538,-3.2282,-3.2314,-3.2319,-3.2358,-3.237,-3.2397,-3.2409,-3.2424,-3.2438,-3.2472,-3.2493,-3.2501,-3.2517,-3.2543,-3.2566,-3.2569,-3.2578,-3.2586,-3.2589,-3.2547,-3.2541,-3.2536,-3.2528,-3.2589,-3.2589,-3.263,-3.2631,-3.2631]},{"header":{"parameterUnit":"m.s-1","parameterCategory":1,"la1":30.2991,"la2":30.254,"lo1":-89.0895,"lo2":-89.0444,"dy":0.0017,"dx":0.0017,"nx":28,"ny":28,"refTime":"2025-04-17T09:00:00:Z","depth":0,"parameterNumber":3,"parameterNumberName":"V-component_of_WINDS"},"data":[0,0,0,0,0,0,0,0,0,0,0,0,0,0,0,0,0,0,0,0,0,0,0,0,0,0,0,0,0,0,0,0,0,0,0,0,0,0,0,0,0,0,0,0,0,0,0,0,0,0,0,0,0,0,0,0,0,0,4.6321,4.6321,0,4.6329,4.6329,4.6329,4.6343,4.6344,4.6344,4.6344,4.6348,4.6348,4.6348,0,0,0,0,0,0,0,0,0,0,0,0,0,4.6316,4.6316,4.6321,4.6321,4.6321,4.6329,4.6329,4.6329,4.6343,4.6344,4.6344,4.6344,4.6348,4.6348,4.6348,0,0,0,0,0,0,0,0,0,0,0,0,0,4.632,4.6316,4.6321,4.633,4.633,4.6329,4.6329,4.6329,4.6343,4.6344,4.6344,4.6345,4.6348,4.6348,4.6348,4.6337,0,0,4.6347,4.6347,0,0,0,0,0,0,0,0,4.632,4.6321,4.6328,4.6329,4.633,4.6336,4.6329,4.6332,4.6343,4.6338,4.6344,4.6345,4.6343,4.6343,4.6344,4.6337,4.6337,4.6347,4.6347,4.6346,4.6346,0,0,0,0,0,0,0,4.632,4.632,4.6324,4.6328,4.6329,4.6332,4.6333,4.6329,4.6338,4.6339,4.634,4.6341,4.6344,4.6344,4.6344,4.6338,4.6347,4.6346,4.6346,4.6346,4.6325,4.6324,0,0,0,0,0,0,4.6319,4.632,4.6324,4.6324,4.6326,4.6332,4.6333,4.6333,4.6338,4.6339,4.634,4.6341,4.6344,4.6344,4.6344,4.6333,4.6346,4.6346,4.6346,4.6325,4.6325,4.6324,0,0,0,0,0,0,4.6319,4.6319,4.6324,4.6323,4.6323,4.6331,4.6332,4.6333,4.6334,4.634,4.6341,4.6339,4.6345,4.6344,4.6339,4.6334,4.6346,4.6346,4.6326,4.6325,4.6324,4.6311,0,0,0,0,0,0,4.6319,4.6319,4.6316,4.6322,4.6323,4.632,4.6331,4.6333,4.6334,4.6335,4.6339,4.634,4.6345,4.634,4.6339,4.6333,4.6346,4.6326,4.6325,4.6324,4.6312,4.631,4.6308,0,0,0,0,0,4.6318,4.631,4.6315,4.6316,4.632,4.6319,4.632,4.6327,4.6333,4.633,4.6334,4.634,4.6335,4.6339,4.6339,4.6333,4.6326,4.6325,4.6325,4.6313,4.631,4.6308,0,0,0,0,0,0,4.63,4.6311,4.6317,4.6311,4.6314,4.6322,4.6317,4.6324,4.6324,4.6325,4.6333,4.6334,4.6328,4.633,4.6335,4.6324,4.6331,4.633,4.6323,4.6321,4.6319,4.6318,4.6345,0,0,0,0,0,4.6296,4.6296,4.6305,4.6299,4.6301,4.6309,4.6309,4.6315,4.6318,4.6318,4.6322,4.6324,4.6323,4.6322,4.6321,4.6313,4.6314,4.6308,4.6307,4.6305,4.6304,4.6301,4.6299,4.6321,4.6321,4.6321,0,0,4.6287,4.6293,4.6292,4.6296,4.6299,4.6298,4.631,4.6308,4.6307,4.6318,4.6314,4.6317,4.6319,4.6313,4.631,4.6314,4.6298,4.6304,4.6303,4.6302,4.6299,4.6297,4.6295,4.632,4.632,4.6321,0,0,4.6269,4.6273,4.627,4.6273,4.6279,4.6285,4.6284,4.6291,4.6293,4.629,4.6299,4.6297,4.6295,4.6297,4.6298,4.6283,4.6289,4.6283,4.6273,4.627,4.6268,4.6266,4.6262,4.626,4.6282,4.6282,4.6281,0,4.6256,4.6256,4.6266,4.6265,4.6266,4.6278,4.6274,4.6277,4.6281,4.6282,4.6287,4.6286,4.6288,4.6283,4.628,4.6279,4.6279,4.6282,4.6268,4.6266,4.6265,4.626,4.6259,4.6281,4.6281,4.6281,4.6281,0,4.624,4.624,4.6236,4.6243,4.6244,4.6241,4.625,4.625,4.6256,4.6261,4.6258,4.6262,4.6263,4.6262,4.6267,4.6258,4.6261,4.6266,4.6274,4.6262,4.6258,4.6256,4.628,4.628,4.628,4.628,0,0,4.621,4.6224,4.6222,4.6226,4.6234,4.6234,4.6231,4.6234,4.6234,4.6237,4.6235,4.6235,4.6241,4.6241,4.6247,4.6244,4.6233,4.625,4.6251,4.6247,4.6225,4.622,4.6218,4.6238,4.6237,4.6237,4.6225,0,4.6194,4.6193,4.6203,4.6198,4.6199,4.6211,4.6209,4.6214,4.6219,4.6219,4.6224,4.6224,4.6232,4.6233,4.623,4.6235,4.6229,4.6236,4.6236,4.6235,4.6235,4.6216,4.6211,4.6199,4.6223,4.6223,4.6223,0,4.6175,4.618,4.6176,4.6186,4.6186,4.6184,4.6189,4.6189,4.6194,4.6199,4.6201,4.6208,4.6206,4.6214,4.6212,4.6217,4.6217,4.622,4.6219,4.6219,4.6228,4.6216,4.6195,4.6194,4.622,4.622,4.622,0,4.6155,4.6159,4.6158,4.6161,4.6172,4.6171,4.6175,4.6181,4.6182,4.6186,4.6187,4.6189,4.619,4.6192,4.6199,4.6204,4.6196,4.6205,4.6199,4.6199,4.6196,4.6196,4.6176,4.6197,4.6197,4.6197,4.6197,0,4.6136,4.6133,4.6149,4.6148,4.6146,4.6157,4.6154,4.6159,4.6165,4.6165,4.6175,4.6175,4.6185,4.6185,4.6191,4.6189,4.6189,4.6192,4.6193,4.6191,4.6191,4.6191,4.6192,4.6196,4.6196,4.6196,4.6197,0,4.6112,4.6123,4.6122,4.6134,4.6137,4.6134,4.6144,4.6143,4.615,4.615,4.615,4.616,4.6162,4.617,4.6172,4.6176,4.6172,4.6175,4.6171,4.6172,4.6166,4.6167,4.6145,4.6143,4.6165,4.6165,4.6164,0,4.6099,4.6098,4.611,4.6112,4.6116,4.6118,4.6121,4.6132,4.6134,4.6141,4.614,4.6143,4.6145,4.6147,4.6154,4.6156,4.616,4.6152,4.616,4.6158,4.616,4.616,4.616,4.615,4.615,4.615,4.6149,0,4.6076,4.6082,4.6086,4.6092,4.6095,4.61,4.6105,4.6105,4.6118,4.612,4.6122,4.6125,4.6129,4.6131,4.6136,4.6139,4.6146,4.6147,4.6146,4.6143,4.6141,4.6143,4.6166,4.6147,4.6148,4.6148,4.6148,4.6148,4.6057,4.6057,4.6067,4.6071,4.6077,4.6082,4.6082,4.609,4.6093,4.6099,4.6105,4.6107,4.6113,4.612,4.6123,4.6125,4.6129,4.6127,4.6126,4.6126,4.6125,4.6142,4.6125,4.6125,4.6125,4.6125,4.6126,0,4.6035,4.6042,4.6046,4.6055,4.6058,4.6067,4.6073,4.6075,4.6078,4.6084,4.6087,4.6091,4.6094,4.6102,4.6106,4.6105,4.6109,4.6106,4.6106,4.6107,4.6121,4.6122,4.6103,4.6103,4.6103,4.6103,4.6103,4.6103,4.6024,4.6025,4.6032,4.6036,4.6042,4.6046,4.6049,4.6054,4.606,4.6064,4.6067,4.6073,4.608,4.6085,4.6088,4.609,4.6091,4.6087,4.609,4.6103,4.6106,4.6108,4.6108,4.6087,4.6087,4.6076,4.6076,4.6076]}]]